When you browse on this site, cookies collect data to enhance your experience and personalize the content and advertising you see.
Visit our Privacy Policy to learn more. By continuing to use the site, you agree to this use of cookies and data.
  • In Denmark
  • List of Countries
  • For 7 days
  • Water Temperature
  • Satellite Maps
  • Weather Map
  • Weather Widgets
  • user-avatar
    Login

    Hourly Weather Akaba

    Today, 21 July, Sunday

    Time Temperature Precipitation Wind Pressure Humidity
    00:00 +25°C° 0 mm 3 mps 747 mmHg 71%
    01:00 +24°C° 0 mm 3 mps 747 mmHg 76%
    02:00 +24°C° 0 mm 3 mps 746 mmHg 83%
    03:00 +22°C° 0 mm 3 mps 746 mmHg 85%
    04:00 +22°C° 0 mm 3 mps 746 mmHg 87%
    05:00 +22°C° 0 mm 3 mps 746 mmHg 89%
    06:00 +24°C° 0 mm 3 mps 746 mmHg 79%
    07:00 +26°C° 0 mm 3 mps 746 mmHg 70%
    08:00 +28°C° 0 mm 3 mps 746 mmHg 60%
    09:00 +30°C° 0 mm 3 mps 746 mmHg 51%
    10:00 +33°C° 0 mm 4 mps 746 mmHg 42%
    11:00 +36°C° 0 mm 4 mps 745 mmHg 33%
    12:00 +37°C° 0 mm 5 mps 745 mmHg 30%
    13:00 +40°C° 0 mm 5 mps 744 mmHg 26%
    14:00 +41°C° 0 mm 6 mps 744 mmHg 23%
    15:00 +41°C° 0 mm 6 mps 743 mmHg 23%
    16:00 +41°C° 0 mm 7 mps 743 mmHg 23%
    17:00 +40°C° 0 mm 7 mps 743 mmHg 23%
    18:00 +38°C° 0 mm 6 mps 744 mmHg 33%
    19:00 +34°C° 0 mm 6 mps 744 mmHg 42%
    20:00 +30°C° 0 mm 5 mps 745 mmHg 51%
    21:00 +29°C° 0 mm 4 mps 745 mmHg 56%
    22:00 +28°C° 0 mm 3 mps 745 mmHg 61%
    23:00 +27°C° 0 mm 2 mps 745 mmHg 67%

    Tomorrow, 22 July, Monday

    Time Temperature Precipitation Wind Pressure Humidity
    00:00 +27°C° 0 mm 2 mps 745 mmHg 69%
    01:00 +26°C° 0 mm 2 mps 745 mmHg 71%
    02:00 +26°C° 0 mm 2 mps 744 mmHg 73%
    03:00 +25°C° 0 mm 2 mps 744 mmHg 75%
    04:00 +25°C° 0 mm 2 mps 744 mmHg 77%
    05:00 +24°C° 0 mm 2 mps 744 mmHg 80%
    06:00 +26°C° 0 mm 3 mps 744 mmHg 69%
    07:00 +28°C° 0 mm 3 mps 744 mmHg 59%
    08:00 +30°C° 0 mm 4 mps 744 mmHg 48%
    09:00 +34°C° 0 mm 4 mps 744 mmHg 41%
    10:00 +36°C° 0 mm 5 mps 744 mmHg 34%
    11:00 +40°C° 0 mm 5 mps 744 mmHg 27%
    12:00 +41°C° 0 mm 5 mps 743 mmHg 24%
    13:00 +42°C° 0 mm 6 mps 743 mmHg 21%
    14:00 +45°C° 0 mm 6 mps 742 mmHg 18%
    15:00 +44°C° 0 mm 7 mps 742 mmHg 18%
    16:00 +44°C° 0 mm 7 mps 741 mmHg 18%
    17:00 +43°C° 0 mm 8 mps 741 mmHg 18%
    18:00 +39°C° 0 mm 7 mps 742 mmHg 29%
    19:00 +35°C° 0 mm 6 mps 742 mmHg 40%
    20:00 +32°C° 0 mm 5 mps 743 mmHg 50%
    21:00 +30°C° 0 mm 4 mps 743 mmHg 54%
    22:00 +29°C° 0 mm 3 mps 743 mmHg 58%
    23:00 +28°C° 0 mm 2 mps 743 mmHg 62%

    Day after tomorrow, 23 July, Tuesday

    Time Temperature Precipitation Wind Pressure Humidity
    00:00 +27°C° 0 mm 2 mps 743 mmHg 64%
    01:00 +27°C° 0 mm 2 mps 743 mmHg 66%
    02:00 +26°C° 0 mm 2 mps 742 mmHg 68%
    03:00 +26°C° 0 mm 2 mps 742 mmHg 69%
    04:00 +26°C° 0 mm 2 mps 742 mmHg 71%
    05:00 +25°C° 0 mm 2 mps 742 mmHg 72%
    06:00 +27°C° 0 mm 2 mps 743 mmHg 63%
    07:00 +29°C° 0 mm 2 mps 743 mmHg 53%
    08:00 +33°C° 0 mm 3 mps 743 mmHg 44%
    09:00 +35°C° 0 mm 3 mps 743 mmHg 38%
    10:00 +37°C° 0 mm 3 mps 742 mmHg 32%
    11:00 +39°C° 0 mm 3 mps 742 mmHg 25%
    12:00 +41°C° 0 mm 4 mps 742 mmHg 23%
    13:00 +43°C° 0 mm 4 mps 741 mmHg 21%
    14:00 +44°C° 0 mm 4 mps 741 mmHg 19%
    15:00 +43°C° 0 mm 5 mps 741 mmHg 19%
    16:00 +44°C° 0 mm 6 mps 741 mmHg 20%
    17:00 +44°C° 0 mm 6 mps 741 mmHg 20%
    18:00 +40°C° 0 mm 6 mps 741 mmHg 27%
    19:00 +36°C° 0 mm 5 mps 742 mmHg 33%
    20:00 +33°C° 0 mm 4 mps 743 mmHg 40%
    21:00 +32°C° 0 mm 4 mps 743 mmHg 44%
    22:00 +29°C° 0 mm 3 mps 743 mmHg 49%
    23:00 +28°C° 0 mm 2 mps 744 mmHg 53%

    24 July, Wednesday

    Time Temperature Precipitation Wind Pressure Humidity
    00:00 +27°C° 0 mm 2 mps 743 mmHg 54%
    01:00 +27°C° 0 mm 2 mps 743 mmHg 55%
    02:00 +26°C° 0 mm 2 mps 743 mmHg 56%
    03:00 +26°C° 0 mm 2 mps 743 mmHg 57%
    04:00 +26°C° 0 mm 1 mps 743 mmHg 58%
    05:00 +25°C° 0 mm 1 mps 743 mmHg 59%
    06:00 +27°C° 0 mm 2 mps 743 mmHg 50%
    07:00 +30°C° 0 mm 2 mps 744 mmHg 42%
    08:00 +32°C° 0 mm 2 mps 744 mmHg 33%
    09:00 +35°C° 0 mm 2 mps 744 mmHg 28%
    10:00 +37°C° 0 mm 3 mps 743 mmHg 24%
    11:00 +39°C° 0 mm 3 mps 743 mmHg 19%
    12:00 +42°C° 0 mm 4 mps 743 mmHg 18%
    13:00 +43°C° 0 mm 4 mps 742 mmHg 16%
    14:00 +45°C° 0 mm 5 mps 742 mmHg 15%
    15:00 +45°C° 0 mm 5 mps 742 mmHg 15%
    16:00 +45°C° 0 mm 5 mps 741 mmHg 15%
    17:00 +44°C° 0 mm 6 mps 741 mmHg 15%
    18:00 +41°C° 0 mm 5 mps 742 mmHg 20%
    19:00 +37°C° 0 mm 5 mps 742 mmHg 25%
    20:00 +34°C° 0 mm 5 mps 743 mmHg 30%
    21:00 +33°C° 0 mm 4 mps 743 mmHg 33%
    22:00 +31°C° 0 mm 3 mps 743 mmHg 36%
    23:00 +30°C° 0 mm 3 mps 744 mmHg 40%

    25 July, Thursday

    Time Temperature Precipitation Wind Pressure Humidity
    00:00 +29°C° 0 mm 2 mps 744 mmHg 40%
    01:00 +29°C° 0 mm 2 mps 744 mmHg 40%
    02:00 +28°C° 0 mm 2 mps 744 mmHg 40%
    03:00 +28°C° 0 mm 2 mps 744 mmHg 40%
    04:00 +27°C° 0 mm 2 mps 744 mmHg 41%
    05:00 +27°C° 0 mm 2 mps 744 mmHg 41%
    06:00 +29°C° 0 mm 2 mps 744 mmHg 35%
    07:00 +33°C° 0 mm 3 mps 744 mmHg 30%
    08:00 +35°C° 0 mm 3 mps 745 mmHg 25%
    09:00 +37°C° 0 mm 3 mps 744 mmHg 22%
    10:00 +39°C° 0 mm 3 mps 744 mmHg 19%
    11:00 +42°C° 0 mm 4 mps 744 mmHg 16%
    12:00 +43°C° 0 mm 4 mps 743 mmHg 15%
    13:00 +44°C° 0 mm 4 mps 743 mmHg 14%
    14:00 +47°C° 0 mm 4 mps 742 mmHg 13%
    15:00 +45°C° 0 mm 4 mps 742 mmHg 13%
    16:00 +46°C° 0 mm 5 mps 742 mmHg 13%
    17:00 +46°C° 0 mm 5 mps 742 mmHg 12%
    18:00 +42°C° 0 mm 5 mps 742 mmHg 18%
    19:00 +39°C° 0 mm 5 mps 743 mmHg 24%
    20:00 +34°C° 0 mm 5 mps 743 mmHg 29%
    21:00 +33°C° 0 mm 4 mps 743 mmHg 32%
    22:00 +31°C° 0 mm 3 mps 743 mmHg 35%
    23:00 +30°C° 0 mm 3 mps 743 mmHg 38%

    26 July, Friday

    Time Temperature Precipitation Wind Pressure Humidity
    00:00 +29°C° 0 mm 3 mps 743 mmHg 39%
    01:00 +29°C° 0 mm 3 mps 743 mmHg 40%
    02:00 +28°C° 0 mm 2 mps 743 mmHg 40%
    03:00 +28°C° 0 mm 2 mps 743 mmHg 41%
    04:00 +27°C° 0 mm 2 mps 744 mmHg 43%
    05:00 +27°C° 0 mm 2 mps 744 mmHg 44%
    06:00 +29°C° 0 mm 3 mps 744 mmHg 37%
    07:00 +31°C° 0 mm 3 mps 744 mmHg 31%
    08:00 +35°C° 0 mm 3 mps 744 mmHg 25%
    09:00 +37°C° 0 mm 4 mps 744 mmHg 22%
    10:00 +40°C° 0 mm 4 mps 743 mmHg 18%
    11:00 +42°C° 0 mm 4 mps 743 mmHg 15%
    12:00 +43°C° 0 mm 5 mps 742 mmHg 14%
    13:00 +45°C° 0 mm 5 mps 742 mmHg 13%
    14:00 +46°C° 0 mm 6 mps 741 mmHg 12%
    15:00 +46°C° 0 mm 6 mps 741 mmHg 13%
    16:00 +45°C° 0 mm 6 mps 741 mmHg 14%
    17:00 +44°C° 0 mm 6 mps 740 mmHg 15%
    18:00 +40°C° 0 mm 6 mps 741 mmHg 23%
    19:00 +36°C° 0 mm 5 mps 741 mmHg 32%
    20:00 +33°C° 0 mm 5 mps 742 mmHg 41%
    21:00 +32°C° 0 mm 4 mps 742 mmHg 46%
    22:00 +30°C° 0 mm 4 mps 742 mmHg 51%
    23:00 +29°C° 0 mm 3 mps 742 mmHg 56%
    Show more